Location: Unspecified
(0.0000°N, 0.0000°E)
Time: 22:08:32
(UTC+00:00)

Vanguard 1 - All Passes

Search period start: 23 April 2014 00:00
Search period end: 03 May 2014 00:00
Orbit: 648 x 3839 km, 34.3° (Epoch: 19 April)

Date Brightness Start Highest point End Pass type
(mag) Time Alt. Az. Time Alt. Az. Time Alt. Az.
23 Apr - 04:29:59 10° SSE 04:31:03 11° SE 04:32:10 10° SE visible
23 Apr - 06:46:05 10° WSW 06:51:01 69° NW 06:59:02 10° NE daylight
23 Apr - 09:08:47 10° WNW 09:14:12 19° NNW 09:21:55 10° NNE daylight
23 Apr - 11:36:38 10° NNW 11:42:47 13° N 11:50:16 10° NNE daylight
23 Apr - 14:00:14 10° NNW 14:15:27 25° NNE 14:32:42 10° ENE daylight
23 Apr - 16:23:25 10° NW 16:46:05 56° NE 17:05:11 10° ESE daylight
23 Apr - 18:50:09 10° WNW 19:13:20 69° SW 19:28:17 10° SE visible
23 Apr - 21:25:21 10° W 21:37:48 22° SW 21:46:25 10° S visible
24 Apr - 04:49:11 10° SSW 04:52:36 21° SE 04:56:33 10° E visible
24 Apr - 07:07:54 10° W 07:12:49 41° NNW 07:20:38 10° NE daylight
24 Apr - 09:32:33 10° NW 09:37:05 14° N 09:42:55 10° NNE daylight
24 Apr - 11:59:42 10° NNW 12:06:49 14° N 12:15:27 10° NE daylight
24 Apr - 14:21:51 10° NNW 14:38:59 30° NNE 14:57:51 10° E daylight
24 Apr - 16:45:12 10° NW 17:08:40 68° NE 17:27:40 10° ESE daylight
24 Apr - 19:13:13 10° WNW 19:35:17 55° SW 19:49:34 10° SE visible
24 Apr - 21:51:48 10° WSW 22:00:05 15° SW 22:06:26 10° S visible
25 Apr - 05:09:51 10° SSW 05:14:01 40° SE 05:19:17 10° ENE visible
25 Apr - 07:30:11 10° W 07:34:53 27° NNW 07:41:54 10° NNE daylight
25 Apr - 09:57:18 10° NNW 10:00:15 11° N 10:03:38 10° N daylight
25 Apr - 12:21:53 10° NNW 12:30:51 16° NNE 12:41:52 10° NE daylight
25 Apr - 14:43:20 10° NNW 15:02:11 38° NNE 15:22:14 10° E daylight
25 Apr - 17:07:08 10° NW 17:31:03 82° NE 17:49:46 10° SE daylight
25 Apr - 19:36:51 10° WNW 19:57:15 43° SW 20:10:40 10° SSE visible
25 Apr - 22:21:28 10° SW 22:22:42 10° SSW 22:23:53 10° SSW visible
26 Apr - 05:31:01 10° SW 05:35:26 79° SE 05:41:24 10° ENE visible
26 Apr - 07:53:03 10° WNW 07:57:11 18° NNW 08:02:47 10° NNE daylight
26 Apr - 12:43:31 10° NNW 12:54:42 19° NNE 13:08:35 10° ENE daylight
26 Apr - 15:04:49 10° NW 15:25:03 47° NE 15:45:55 10° ESE daylight
26 Apr - 17:29:20 10° NW 17:53:18 83° SW 18:11:35 10° SE daylight
26 Apr - 20:01:12 10° W 20:19:20 33° SW 20:31:37 10° SSE visible
27 Apr - 03:35:00 10° S 03:36:51 12° SSE 03:38:41 10° ESE visible
27 Apr - 05:52:37 10° WSW 05:57:00 55° NNW 06:03:04 10° NE daylight
27 Apr - 08:16:58 10° NW 08:19:43 12° NNW 08:23:00 10° N daylight
27 Apr - 13:04:53 10° NNW 13:18:14 24° NNE 13:34:51 10° ENE daylight
27 Apr - 15:26:20 10° NW 15:47:42 58° NE 16:09:00 10° ESE daylight
27 Apr - 17:51:51 10° WNW 18:15:28 68° SW 18:33:09 10° SE visible
27 Apr - 20:26:26 10° W 20:41:38 25° SW 20:52:23 10° SSE visible
28 Apr - 03:54:54 10° SSW 03:58:33 23° SE 04:02:13 10° E visible
28 Apr - 06:14:39 10° W 06:18:46 30° NNW 06:24:20 10° NNE daylight
28 Apr - 11:08:16 10° N 11:11:06 11° NNE 11:14:13 10° NNE daylight
28 Apr - 13:26:08 10° NNW 13:41:25 30° NNE 14:00:19 10° E daylight
28 Apr - 15:47:58 10° NW 16:10:09 70° NE 16:31:35 10° ESE daylight
28 Apr - 18:14:50 10° WNW 18:37:38 55° SW 18:54:31 10° SE visible
28 Apr - 20:52:41 10° WSW 21:04:15 18° SSW 21:12:56 10° S visible
29 Apr - 04:15:46 10° SW 04:20:05 46° SE 04:24:37 10° ENE visible
29 Apr - 06:37:19 10° WNW 06:40:45 18° NNW 06:45:08 10° NNE daylight
29 Apr - 11:28:37 10° N 11:34:47 13° NNE 11:42:13 10° NE daylight
29 Apr - 13:47:22 10° NNW 14:04:16 38° NE 14:24:56 10° E daylight
29 Apr - 16:09:48 10° NW 16:32:30 84° NE 16:53:47 10° SE daylight
29 Apr - 18:38:22 10° WNW 18:59:52 44° SW 19:15:44 10° SSE visible
29 Apr - 21:20:07 10° SW 21:27:12 13° SSW 21:33:01 10° S visible
30 Apr - 04:37:08 10° SW 04:41:34 86° NW 04:46:28 10° NE visible
30 Apr - 07:01:18 10° NW 07:02:59 11° NNW 07:04:50 10° N daylight
30 Apr - 11:49:20 10° N 11:58:15 17° NNE 12:09:39 10° ENE daylight
30 Apr - 14:08:39 10° NNW 14:26:51 48° NE 14:48:47 10° ESE daylight
30 Apr - 16:31:53 10° NW 16:54:48 81° SW 17:15:41 10° SE daylight
30 Apr - 19:02:36 10° W 19:22:16 34° SW 19:36:51 10° SSE visible
01 May - 02:39:27 10° SSW 02:42:46 16° SSE 02:45:39 10° ESE visible
01 May - 04:58:56 10° WSW 05:03:07 42° NW 05:07:51 10° NE visible
01 May - 12:10:10 10° NNW 12:21:23 22° NNE 12:36:19 10° ENE daylight
01 May - 14:30:01 10° NW 14:49:15 59° NE 15:12:00 10° ESE daylight
01 May - 16:54:17 10° WNW 17:17:06 67° SW 17:37:21 10° SE daylight
01 May - 19:27:41 10° W 19:44:56 27° SSW 19:57:52 10° SSE visible
02 May - 03:00:01 10° SSW 03:04:36 29° SSE 03:08:27 10° E visible
02 May - 05:21:18 10° W 05:24:48 22° NNW 05:28:46 10° NNE visible
02 May - 12:31:04 10° NNW 12:44:11 29° NE 13:02:03 10° E daylight
02 May - 14:51:33 10° NW 15:11:33 72° NE 15:34:43 10° ESE daylight
02 May - 17:17:08 10° WNW 17:39:28 55° SW 17:58:50 10° SE daylight
02 May - 19:53:42 10° WSW 20:07:56 21° SSW 20:18:51 10° SSE visible
